星链-4040 (STARLINK-4040 )

导读 | 豆包AI

STARLINK-4040是美国SpaceX公司星链星座的一员,于2022年7月17日发射入轨,属于星链一代低轨通信卫星。它运行在近地轨道,配备霍尔推进器可自主规避碰撞,依托星链全球组网,为偏远地区及全球用户提供高速低延迟的卫星互联网接入服务,是SpaceX打造4.2万颗巨型低轨星座进程中的组成部分,目前仍在轨服役。

Basic Information
目录编号:
53151
目录名称:
STARLINK-4040
国际标识:
2022-083V
轨道中心:
EARTH
卫星名称:
星链-4040
卫星全名:
星链-4040 (STARLINK-4040 )
卫星状态:
在轨 (已飞行1383 天)
发射日期:
2022-07-17 UTC
国别 :
美国 (US)
星等 :
--
Orbit Information
数据来源 国际轨道数据 AOE轨道数据
星历时间 2026-04-30T19:13:52+0800
10小时前
查看轨道信息
2026-04-26T17:00:00+0800
4天前
查看轨道信息
半长轴 6917.879km 6917.885km
偏心率 0.0001251 0.0001276
轨道倾角 53.218° 53.217°
近地点辐角 87.272° 79.500°
升交点赤经 291.682° 310.056°
平近点角 272.842° 356.271°
近地点 538.876km 538.865km
远地点 540.608km 540.631km
周期 95.438分钟 95.438分钟
每日圈数 15.088406 15.088385
Detailed Information
固有亮度:
5
最大亮度:
2.5
卫星平台:
Starlink v1.5
覆盖范围:
全球
运营商:
太空探索技术公司
运营商所在国:
美国
制造商(研发单位):
太空探索技术公司
制造商所在国:
美国
使用方式:
暂无
Satellite Introduction
星链(Starlink)计划是由太空探索技术公司(SpaceX)提出的一个巨型低轨卫星互联网星座项目,计划在2019年至2024年间在太空搭建由约1.2万颗卫星组成的“星链”网络,其中1584颗将部署在地球上空550千米处的近地轨道,并从2020年开始工作。该卫星仍在工作。
2D Orbit Map
3D Orbit Map
Orbit Altitude Analysis Chart
Orbit Inclination Analysis Chart
Orbit Comprehensive Analysis Chart
View Comprehensive Chart